Location: Bennemühlen
(52.5740°N, 9.7135°E)
Time: 17:31:39
(UTC+00:00)

Tiros 1 despin weight - Pass Details

Date: 20 February 2026
Orbit: 556 x 593 km, 48.2° (Epoch: 11 March)

Event Time Altitude Azimuth Distance (km) Brightness Sun altitude
Rises 15:32:40 0° 251° (WSW) 2,738 ? 8.9°
Reaches altitude 10° 15:34:59 10° 245° (WSW) 1,840 ? 8.6°
Maximum altitude 15:38:58 44° 173° (S) 772 ? 8.1°
Drops below altitude 10° 15:42:58 10° 101° (E) 1,838 ? 7.6°
Sets 15:45:17 0° 95° (E) 2,734 ? 7.3°
